Location: Bramevaque
(42.9773°N, 0.5757°E)
Time: 12:30:07
(UTC+00:00)

MetOp-A - Pass Details

Date: 15 May 2026
Orbit: 519 x 765 km, 98.3° (Epoch: 8 June)

Event Time Altitude Azimuth Distance (km) Brightness Sun altitude
Exits shadow 23:42:56 61° 44° (NE) 815 4.2 -27.9°
Drops below altitude 10° 23:47:09 10° 353° (N) 2,140 7.3 -27.9°
Sets 23:49:21 0° 350° (N) 3,021 8.3 -28.0°
